Skip Page Navigation
NASA JPL Caltech
NASA Logo - Jet Propulsion Laboratory + View the NASA Portal
+ Near-Earth Object (NEO) Program
Search JPL
JPL Home Earth Solar System Stars & Galaxies Technology
JPL Solar System Dynamics
BODIES ORBITS EPHEMERIDES TOOLS PHYSICAL DATA DISCOVERY FAQ SITE MAP
JPL Small-Body Database Browser
Search: [ help ]  
3636 Pajdusakova (1982 UJ2)
Classification: Main-belt Asteroid          SPK-ID: 2003636
Ephemeris | Orbit Diagram | Orbital Elements | Physical Parameters | Discovery Circumstances ]

[ show orbit diagram ]
Orbital Elements at Epoch 2457000.5 (2014-Dec-09.0) TDB
Reference: JPL 11 (heliocentric ecliptic J2000)
 Element Value Uncertainty (1-sigma)   Units 
e .1756696479146308 4.4831e-08  
a 2.27659487459678 1.0242e-08 AU
q 1.876666254532111 1.0415e-07 AU
i 4.104586303885337 5.8093e-06 deg
node 27.03491134220576 6.1837e-05 deg
peri 93.71299679103079 6.5158e-05 deg
M 65.52452972272266 1.7327e-05 deg
tp 2456772.135564644036
(2014-Apr-24.63556464)
6.0309e-05 JED
period 1254.662903740578
3.44
8.4671e-06
2.318e-08
d
yr
n .2869296596932268 1.9363e-09 deg/d
Q 2.67652349466145 1.2042e-08 AU
  Orbit Determination Parameters
   # obs. used (total)      1234  
   data-arc span      22119 days (60.56 yr)  
   first obs. used      1954-07-29  
   last obs. used      2015-02-18  
   planetary ephem.      DE431  
   SB-pert. ephem.      SB431-BIG16  
   condition code      0  
   fit RMS      .46118  
   data source      ORB  
   producer      Otto Matic  
   solution date      2015-Mar-09 13:49:08  

Additional Information
 Earth MOID = .89793 AU 
 T_jup = 3.585 
[ show covariance matrix ]

Ephemeris | Orbit Diagram | Orbital Elements | Physical Parameters | Discovery Circumstances ]

Physical Parameter Table
Parameter Symbol Value Units Sigma Reference Notes
absolute magnitude H 13.8 mag n/a MPO265976  
SMASSII spectral type spec_B S   n/a EAR-A-5-DDR-TAXONOMY-V4.0 based on a high-resolution spectrum by Xu et al. (1995) or Bus and Binzel (2002)

3636 Pajdusakova (1982 UJ2)          Discovered 1982-Oct-17 by Mrkos, A. at Klet
Reference: DISCOVERY.DBLast Updated: 2003-08-29

Alternate Designations
 1982 UJ2 = 1973 AB4 = 1980 DU2 
Ephemeris | Orbit Diagram | Orbital Elements | Physical Parameters | Discovery Circumstances ]
ABOUT SSD CREDITS/AWARDS PRIVACY/COPYRIGHT GLOSSARY LINKS
FirstGov 2015-May-26 03:42 UT
(server date/time)  
NASA Home Page
Site Manager:   Ryan S. Park
Webmaster  Alan B. Chamberlin